THOR ABLESTAR DEB, 475

Orbit data source: Space-Track

THOR ABLESTAR DEB, 475 is space debris in LEO originally from a launch on Thu, 29 Jun 1961 UTC launched from the Air Force Eastern Test Range (AFETR). Debris objects in space refer to the collection of defunct objects orbiting the Earth. Examples of debris include non-operational satellites, rocket bodies, and fragments generated from explosions, collisions, or faulty payload assembly.

Loading next visibility...
Identifier
475, 1961-015FM
Orbit
LEO
Country
Flag of USUS
Related business
Manufacturer
Unknown
Mission
Spacecraft
Bus & Motor
Unknown
Mass
Unknown
Launch date (UTC)
1961-06-29 (64 years ago)
Launch vehicle
Unknown
Launch site
Air Force Eastern Test Range (AFETR)
Object type
Payload
Rocket body
Debris
Shape & HBR
Unknown
Radar Cross Section
Small (<0.1 m²)

Expand to show TLE details & history
Last TLE update: 1 day ago

TLE from 1 day ago
0 THOR ABLESTAR DEB
1 00475U 61015FM  25260.67846834  .00003010  00000-0  12487-2 0  9998
2 00475  66.2228  16.2912 0151410 272.1316  86.2443 14.21861574249011
Epoch: 2025-09-17T16:16Z
TLE epoch observation values (Epoch: 2025-09-17T16:16:59.664Z)
Latitude
-0°
Longitude
135.19163°
Altitude
815.632 km
Speed
7.449 km/s
True Right ascension
01h 05m 09s
True Declination
0° 00' 00"
Sunlit
Object was in full shadow at epoch
Visualization orbit readout
Latitude
Unknown
Longitude
Unknown
Altitude
Unknown
Speed
Unknown
Apparent Right ascension
Unknown
Apparent Declination
Unknown
Sunlit
N/A
Visualization observer readout
Local Sidereal Time
18:40:31
Azimuth
Unknown
Elevation
Unknown
Doppler factor
Unknown
Orbital elements
Apogee altitude
926.45 km
Perigee altitude
708.551 km
Semi-major axis
7,195.638 km
Eccentricity
0.01514
Inclination
66.2228°
RAAN
16.2912°
Arg. of periapsis
272.1316°
True anomaly
87.97749°
Mean anomaly
86.2443°
Eccentric anomaly
87.11071°
Mean motion
3.55582 °/min
Orbital period
101.24 mins
BSTAR
0.0012487
Loading maneuver chart data...
Computing Atmospheric mass density...

Documentation

Showing up to 5 results
|